Location: �perlecques
(50.8057°N, 2.1521°E)
Time: 03:33:27
(UTC+00:00)

Tiangong - Visible Passes

Search period start: 07 December 2022 00:00
Search period end: 17 December 2022 00:00
Orbit: 386 x 393 km, 41.5° (Epoch: 06 December)

Date Brightness Start Highest point End Pass type
(mag) Time Alt. Az. Time Alt. Az. Time Alt. Az.
07 Dec 0.5 16:44:04 10° SW 16:46:05 16° S 16:48:06 10° SE visible
07 Dec 0.8 18:21:03 10° SW 18:22:16 12° SSW 18:22:25 12° SSW visible
08 Dec 0.7 17:22:35 10° SW 17:24:20 14° S 17:26:04 10° SSE visible
09 Dec 0.7 16:24:22 10° SW 16:26:20 15° S 16:28:17 10° SSE visible
10 Dec 1.0 17:03:24 10° SW 17:04:27 11° SSW 17:05:29 10° S visible
